Weather History for Anderson, SC

Change the Weather History Date:

Tuesday, January 15, 2013

  Actual Average Record
Temperature  
Mean Temperature 56 °F -  
Max Temperature 63 °F 50 °F 70 °F (1952)
Min Temperature 48 °F 30 °F 15 °F (1964)
Degree Days  
Heating Degree Days 10    
Growing Degree Days 6 (Base 50)    
Moisture  
Dew Point 58 °F    
Average Humidity 98    
Maximum Humidity 100    
Minimum Humidity 93    
Precipitation  
Precipitation 0.08 in - - ()
Sea Level Pressure  
Sea Level Pressure 30.07 in    
Wind  
Wind Speed 3 mph (East)    
Max Wind Speed 10 mph    
Max Gust Speed -    
Visibility 7 miles    
Events Fog , Rain    
Averages and records for this station are not official NWS values.
T = Trace of Precipitation, MM = Missing Value Source: NWS Daily Summary

Daily Weather History Graph

Daily Weather History Graph

Search for Another Location

Airport:

Trip Planner

Search our weather history database for the weather conditions in past years. The results will help you decide how hot, cold, wet, or windy it might be!

Date:

Astronomy

Jan. 15, 2013 Rise Set
Actual Time 7:37 AM EST 5:43 PM EST
Civil Twilight 7:09 AM EST 6:11 PM EST
Nautical Twilight 6:38 AM EST 6:42 PM EST
Astronomical Twilight 6:08 AM EST 7:12 PM EST
Moon 9:55 AM EST (1/15) 10:18 PM EST (1/15)
Length of Visible Light 11h 01m
Length of Day
10h 06m
Waxing Crescent, 19% of the Moon is Illuminated
Jan 15
Waxing Crescent
Jan 18
First Quarter
Jan 26
Full
Feb 3
Last Quarter
Feb 10
New

Hourly Weather History & Observations

Time (EST) Temp. Dew Point Humidity Pressure Visibility Wind Dir Wind Speed Gust Speed Precip Events Conditions
12:23 AM 62.6 °F 62.6 °F 100% 30.11 in 10.0 mi Calm Calm - N/A   Overcast
12:56 AM 63.0 °F 62.1 °F 97% 30.09 in 10.0 mi Calm Calm - N/A   Overcast
1:56 AM 62.1 °F 62.1 °F 100% 30.10 in 7.0 mi WSW 3.5 mph - 0.01 in   Overcast
2:13 AM 62.6 °F 60.8 °F 94% 30.11 in 6.0 mi SW 3.5 mph - N/A   Overcast
2:29 AM 62.6 °F 60.8 °F 94% 30.11 in 7.0 mi Calm Calm - N/A   Overcast
2:56 AM 61.0 °F 61.0 °F 100% 30.09 in 6.0 mi Calm Calm - N/A   Overcast
4:18 AM 60.8 °F 60.8 °F 100% 30.07 in 8.0 mi Calm Calm - N/A   Overcast
4:56 AM 61.0 °F 61.0 °F 100% 30.04 in 7.0 mi Calm Calm - N/A   Overcast
5:56 AM 60.1 °F 60.1 °F 100% 30.06 in 4.0 mi Calm Calm - N/A   Overcast
6:37 AM 60.8 °F 60.8 °F 100% 30.08 in 1.8 mi Calm Calm - N/A   Overcast
7:04 AM 60.8 °F 60.8 °F 100% 30.09 in 0.5 mi Calm Calm - N/A Fog Fog
7:32 AM 60.8 °F 60.8 °F 100% 30.10 in 1.0 mi Calm Calm - N/A   Overcast
7:38 AM 60.8 °F 60.8 °F 100% 30.11 in 3.0 mi Calm Calm - N/A   Overcast
7:53 AM 60.8 °F 60.8 °F 100% 30.11 in 1.5 mi Calm Calm - N/A   Overcast
7:56 AM 59.0 °F 59.0 °F 100% 30.10 in 1.0 mi Calm Calm - N/A   Overcast
8:30 AM 60.8 °F 60.8 °F 100% 30.11 in 3.0 mi Calm Calm - N/A   Overcast
8:56 AM 61.0 °F 61.0 °F 100% 30.11 in 6.0 mi Calm Calm - N/A   Overcast
9:14 AM 60.8 °F 60.8 °F 100% 30.12 in 7.0 mi Calm Calm - N/A   Overcast
9:56 AM 62.1 °F 61.0 °F 96% 30.11 in 10.0 mi SE 3.5 mph - N/A   Overcast
10:56 AM 63.0 °F 61.0 °F 93% 30.10 in 10.0 mi SSE 5.8 mph - 0.00 in   Overcast
11:20 AM 62.6 °F 60.8 °F 94% 30.11 in 9.0 mi SSE 3.5 mph - 0.01 in Rain Light Rain
11:46 AM 62.6 °F 62.6 °F 100% 30.09 in 6.0 mi ESE 3.5 mph - 0.02 in Rain Light Rain
11:56 AM 63.0 °F 62.1 °F 97% 30.07 in 4.0 mi ESE 4.6 mph - 0.03 in Rain Light Rain
12:56 PM 63.0 °F 62.1 °F 97% 30.04 in 9.0 mi East 5.8 mph - 0.02 in Rain Light Rain
1:56 PM 62.1 °F 62.1 °F 100% 30.02 in 7.0 mi ENE 9.2 mph - 0.00 in   Overcast
2:12 PM 60.8 °F 60.8 °F 100% 30.02 in 7.0 mi ENE 10.4 mph - 0.00 in Rain Light Rain
2:56 PM 59.0 °F 57.9 °F 96% 30.01 in 9.0 mi ENE 8.1 mph - 0.00 in   Overcast
3:56 PM 57.0 °F 55.9 °F 96% 30.02 in 7.0 mi ENE 8.1 mph - N/A   Overcast
4:11 PM 55.4 °F 55.4 °F 100% 30.04 in 10.0 mi ENE 9.2 mph - N/A   Overcast
4:56 PM 54.0 °F 53.1 °F 97% 30.04 in 10.0 mi ENE 9.2 mph - N/A   Overcast
6:43 PM 53.6 °F 51.8 °F 94% 30.06 in 10.0 mi ENE 6.9 mph - N/A   Overcast
6:56 PM 52.0 °F 51.1 °F 97% 30.05 in 10.0 mi NE 10.4 mph - 0.00 in Rain Light Rain
7:56 PM 51.1 °F 50.0 °F 96% 30.04 in 10.0 mi NE 9.2 mph - 0.00 in   Overcast
8:56 PM 50.0 °F 48.9 °F 96% 30.02 in 10.0 mi East 9.2 mph - N/A   Overcast
9:56 PM 50.0 °F 48.9 °F 96% 30.03 in 9.0 mi NNE 5.8 mph - N/A   Overcast
10:56 PM 48.9 °F 48.0 °F 97% 30.03 in 8.0 mi NE 5.8 mph - 0.01 in Rain Light Rain
11:56 PM 48.0 °F 48.0 °F 100% 30.01 in 7.0 mi East 9.2 mph - 0.01 in Rain Light Rain